Погода в Старой Чертории

Украина / Житомирская область     50°00′41″N   27°41′51″E
темп.,
°C
ветер,
м/с
пор.,
м/с
влажн.,
%
обл.,
%
осадки,
мм/ч
давл.,
гПа
погр.,
м
20 мая, пт
пт2000:00+10зсз348166 0.0 102350
03:00+9з34819 0.0 102346
06:00+9зюз3580100 0.0 102285
09:00+16зюз466596 0.0 1021308
12:00+20зюз5757100 0.0 1019934
15:00+22з6852100 0.0 10181435
18:00+20з5965100 0.0 1016436
21:00+16зюз410846 0.0 1016186
21 мая, сб
сб2100:00+14зюз5138731 0.1 1014292
03:00+13зюз5149070 0.1 1013290
06:00+13зюз5128498 0.0 1011268
09:00+16зюз71577100 0.2 1010766
12:00+17зюз8168671 1.7 1009923
15:00+18з9148732 3.0 10091002
18:00+17сз1116670 0.3 10101478
21:00+14зсз714684 0.3 1010914
22 мая, вс
вс2200:00+12з714712 0.0 1010820
03:00+11з714795 0.0 1008840
06:00+11з8148189 0.0 10061080
09:00+10зсз9158195 0.4 10061233
12:00+9зсз91490100 0.6 10071301
15:00+9зсз91490100 0.8 10071006
18:00+9сз71189100 0.1 1008824
21:00+9сз61093100 0.1 1008661
23 мая, пн
пн2300:00+8зсз51096100 0.5 1009548
03:00+8с4796100 1.5 1009461
06:00+7ссв479596 0.3 1011442
09:00+9св468169 0.3 1012663
12:00+12ссв4567100 0.3 10131238
15:00+14ссв4554100 0.6 10131489
18:00+14с345542 0.0 10131204
21:00+9ссз33716 0.0 101422
24 мая, вт
вт2400:00+7ссз227824 0.0 101610
03:00+6зсз11825 0.0 101610
06:00+6сз11830 0.0 101710
09:00+12св22640 0.0 1017393
12:00+15в33473 0.0 10171575
15:00+17вюв22445 0.0 10171677
18:00+17вюв23485 0.0 10171509
21:00+11вюв46714 0.0 101973